Theta_e
324 322 322 320 319 318 317 315 313 312 312 310 309 309 308 308 308 310 310 308 307 311 309 307 306 305 305 305 305 303 307 309
322 322 320 319 317 317 316 314 313 313 312 309 308 306 305 306 307 307 306 307 306 310 308 305 304 303 303 304 303 303 306 309
322 319 318 317 317 317 315 314 313 313 312 309 307 312 310 307 306 304 304 304 305 308 304 303 301 300 301 301 301 306 306 308
320 318 316 316 314 318 318 316 316 316 314 314 311 312 310 306 305 302 302 303 305 304 302 300 301 305 305 302 306 305 306 307
317 318 316 315 314 317 316 316 316 316 315 314 313 310 311 308 308 306 308 304 307 304 304 305 302 304 305 305 305 304 306 306
315 316 315 315 314 315 315 315 315 314 314 313 311 309 309 307 306 307 307 307 306 305 305 305 303 303 303 303 303 303 304 304
313 314 315 315 315 314 314 314 313 314 313 313 311 308 308 307 306 306 306 306 305 305 305 304 303 303 303 302 302 302 303 303
313 313 315 315 314 313 313 313 312 312 311 311 311 310 309 307 306 306 305 305 305 305 304 303 303 302 302 302 302 302 302 302
312 313 315 315 314 313 312 312 310 310 310 311 311 311 310 309 306 306 305 306 305 304 304 303 302 302 301 301 302 302 301 301
312 311 313 313 312 313 312 312 311 310 310 310 310 310 310 308 306 305 306 306 304 303 303 301 301 301 300 300 301 301 301 300
311 312 311 312 313 313 313 313 311 310 309 308 308 307 307 307 305 306 307 305 304 303 302 302 300 300 299 300 300 300 300 299
312 311 312 313 312 313 311 310 309 309 307 307 306 306 305 305 305 305 306 304 303 303 302 302 300 300 298 298 299 299 300 299
311 311 312 311 310 309 309 308 309 308 307 307 306 305 304 304 303 303 304 303 302 303 301 301 299 300 297 297 298 299 300 299
312 311 310 311 310 309 308 307 307 306 306 306 305 304 304 302 302 301 302 301 301 301 300 298 298 299 296 295 292 296 297 298
309 311 310 308 308 307 306 306 306 304 303 302 302 303 303 302 302 301 301 300 299 300 300 299 296 298 299 296 292 290 295 297
308 307 308 307 306 302 304 302 299 300 301 301 301 302 301 301 301 300 300 299 299 299 298 298 297 294 297 297 298 296 293 292
310 307 306 305 306 304 302 300 300 300 300 300 301 301 301 300 300 300 299 299 299 298 298 297 297 296 295 296 295 296 296 293
306 305 304 303 303 302 301 300 299 298 298 297 298 298 298 299 299 299 299 298 298 298 298 298 297 296 296 296 295 294 293 293
303 302 300 301 301 300 300 299 298 297 296 295 295 295 296 297 298 298 297 298 298 298 297 297 297 296 296 296 296 296 295 295
302 300 299 299 299 298 298 297 296 295 295 294 293 294 294 296 296 296 296 296 297 297 297 297 298 298 296 296 298 298 297 294
Wind_Speed
14 14 13 13 12 11 12 11 10 9 7 6 6 5 3 3 2 3 4 3 1 4 5 6 6 8 8 8 8 8 7 4
12 12 13 13 12 13 13 12 11 10 8 6 5 4 2 3 3 4 2 3 1 4 4 2 4 6 7 6 7 8 4 2
11 11 10 10 11 11 11 10 10 8 8 6 7 1 0 5 8 3 1 2 2 4 2 3 3 3 2 3 9 3 4 2
12 11 10 9 8 11 9 9 8 7 6 5 4 1 3 6 3 1 1 2 2 2 1 3 9 4 1 7 2 4 3 2
14 11 10 9 7 6 5 5 4 5 5 5 3 3 3 4 2 4 2 5 6 7 7 6 4 5 3 3 3 5 2 3
13 13 10 8 6 6 5 4 4 4 4 5 4 4 4 4 4 3 3 3 3 5 3 4 6 5 6 4 4 5 3 4
13 12 10 8 7 4 4 4 4 3 4 5 5 6 5 5 5 5 5 4 4 5 4 5 5 6 6 6 6 5 6 5
12 11 9 8 7 5 4 4 3 5 4 5 7 7 6 7 7 7 6 5 5 5 5 5 5 5 6 7 7 6 6 6
12 10 9 8 8 6 5 4 4 5 5 6 8 9 9 10 8 8 7 6 7 6 6 6 6 6 7 7 7 7 7 7
12 9 10 9 8 6 4 3 5 5 6 6 9 10 11 10 9 9 9 7 8 8 7 7 6 6 6 6 6 6 7 8
11 9 9 10 7 5 6 5 6 6 6 7 8 9 10 10 10 10 10 9 9 9 8 8 8 7 7 6 7 7 8 7
8 8 9 8 5 6 6 5 6 6 7 8 9 8 10 9 10 11 10 10 10 10 11 9 8 9 8 7 7 8 8 8
10 9 8 6 6 6 6 7 6 7 8 10 11 10 10 10 9 10 10 11 12 11 11 12 10 9 9 9 9 10 10 9
8 7 6 7 4 5 5 7 8 9 9 11 11 11 11 11 12 11 12 11 13 13 13 10 10 10 9 8 8 6 6 7
5 7 5 5 6 6 6 9 10 10 11 10 9 10 12 13 14 12 12 12 11 12 13 14 11 10 12 7 5 6 3 5
3 4 5 6 6 8 12 12 13 11 11 11 11 14 15 15 15 15 14 12 13 12 12 13 12 12 9 10 12 6 4 3
3 6 7 8 9 11 11 14 12 12 12 16 15 14 16 16 15 15 15 12 14 15 14 14 12 11 11 9 11 10 9 7
6 8 10 11 11 13 14 16 16 14 15 15 13 12 12 15 16 15 15 14 15 14 16 17 14 13 11 12 9 8 8 7
8 11 13 13 13 14 15 17 18 19 17 13 16 13 13 14 15 15 13 15 15 15 16 16 16 15 15 11 10 8 8 9
11 13 14 15 15 15 15 16 12 13 14 14 13 13 13 15 14 15 14 14 13 14 13 13 14 12 14 12 10 10 9 8
Wind_Direction
145 151 151 146 146 149 142 148 149 150 129 112 102 107 86 78 47 59 36 17 30 119 89 69 28 10 0 359 6 342 312 7
148 150 159 156 154 158 157 157 156 156 141 137 121 128 111 133 197 106 9 340 9 98 91 63 12 354 351 1 324 268 359 308
156 154 151 154 153 154 160 160 161 161 166 159 193 274 206 206 62 58 340 307 229 133 80 20 310 233 36 333 282 13 315 341
160 157 159 158 158 158 168 161 181 192 194 183 240 314 348 336 51 114 249 271 186 163 143 229 249 316 181 213 316 350 282 305
163 162 164 174 153 169 175 175 180 189 218 231 228 263 228 249 269 206 221 181 221 199 200 243 334 309 317 315 328 273 308 287
164 166 168 184 171 192 173 196 192 215 207 218 249 241 238 269 274 276 255 263 293 250 259 302 288 282 290 279 283 297 312 306
167 165 174 179 205 181 213 221 201 236 222 204 247 262 255 260 264 266 277 264 253 258 262 267 272 257 262 262 264 277 292 291
163 174 181 188 212 204 206 209 207 225 229 240 226 256 262 264 252 252 257 253 263 268 276 282 280 291 267 255 265 276 271 292
166 178 185 200 204 203 220 218 239 246 251 241 252 250 253 259 260 255 256 250 259 255 255 251 266 261 266 267 259 255 266 269
173 180 184 189 198 206 233 232 249 261 261 259 254 257 256 259 254 255 251 246 247 250 254 257 259 270 274 270 261 263 265 267
179 181 188 197 197 223 234 249 253 262 265 264 262 258 257 256 257 256 249 243 243 246 249 252 271 264 262 259 264 267 263 260
178 194 203 205 215 235 252 257 262 263 268 269 272 261 259 254 255 256 249 244 242 242 251 255 251 270 270 268 265 268 266 259
208 202 203 215 224 248 252 264 277 271 270 271 271 270 260 259 259 256 242 249 249 251 244 245 253 239 262 260 257 244 246 255
215 222 213 233 263 282 288 299 290 291 290 288 283 271 262 260 257 257 254 252 245 244 248 251 248 245 242 261 267 220 212 222
236 232 258 267 287 286 277 269 260 262 271 279 274 266 264 263 259 256 258 255 252 244 239 241 247 244 228 225 263 244 105 158
251 255 273 286 307 285 282 289 291 295 293 285 284 276 269 260 257 251 249 248 246 245 242 243 234 239 226 214 222 255 294 250
323 320 304 286 298 298 297 295 296 298 293 289 277 268 261 264 258 252 247 245 244 243 240 232 231 229 232 210 222 224 225 240
339 309 306 312 312 305 300 296 295 291 289 290 283 278 275 266 258 251 251 245 240 239 235 234 227 229 226 233 207 222 215 216
329 323 318 320 315 310 304 300 297 293 291 290 291 283 275 268 262 251 247 246 245 243 233 230 223 221 221 227 223 198 205 222
332 329 321 322 315 312 307 303 296 297 295 298 292 289 286 283 275 266 256 253 260 257 242 230 225 223 223 218 223 210 195 207